USA 270

Last updated on Jan. 13, 2021, 8:41 a.m. UTC

1 41744U 16052A   21012.52251899  .00000047  00000-0  00000+0 0  9991
2 41744   0.1601  98.1243 0004855 353.2067 268.7020  1.00274257  8264
UTC
Height (km)
Latitude
Longitude
Inclination
Orbital Period
UTC large
Height (km)
Speed (km/s)
/
Latitude / Longitude
Inclination (degrees)
Orbital Period (minutes)
Azimuth
Elevation
Range (km)
Doppler Factor
iOS Compass Heading
iOS Angle

Next 30 passes for location: Hong Kong

Rise time Rise Azimuth (degrees) Set time Set Azimuth (degrees) Duration Max altitude (degrees)

No matching passes for this satellites